Location: Basse Occidentale du Courleau
(48.3833°N, 4.8333°W)
Time: 19:34:29
(UTC+00:00)

Spot 4 - Pass Details

Date: 05 July 2020
Orbit: 705 x 723 km, 98.3° (Epoch: 06 August)

Event Time Altitude Azimuth Distance (km) Brightness Sun altitude
Exits shadow 22:59:06 28° 150° (SSE) 1,303 4.6 -16.4°
Maximum altitude 23:01:33 71° 73° (ENE) 752 3.9 -16.6°
Drops below altitude 10° 23:06:20 10° 350° (N) 2,188 7.7 -16.8°
Sets 23:08:36 0° 348° (NNW) 3,110 8.9 -17.0°
